Location: Aalen
(48.8330°N, 10.1000°E)
Time: 08:48:09
(UTC+01:00)

N. Korean satellite - Pass Details

Date: 10 December 2022
Orbit: 407 x 442 km, 97.3° (Epoch: 04 February)

Event Time Altitude Azimuth Distance (km) Brightness Sun altitude
Rises 05:15:52 0° 20° (NNE) 2,500 10.4 -26.1°
Reaches altitude 10° 05:18:03 10° 29° (NNE) 1,612 9.4 -25.8°
Maximum altitude 05:21:16 36° 97° (E) 743 8.0 -25.3°
Drops below altitude 10° 05:24:25 10° 166° (SSE) 1,570 9.4 -24.7°
Sets 05:26:31 0° 175° (S) 2,424 10.3 -24.4°
